Dewpoint
43 39 36 36 34 33 33 30 31 32 33 33 33 33 33 33 32 30 31 31 30 29 31 32 32 31 33 38 37 38 39 39 52 59 63 63 64 64 63 64 65 65 65 65
41 36 37 38 37 33 32 31 29 29 31 32 32 31 33 34 33 31 29 30 30 29 31 35 38 41 43 43 43 43 41 39 39 43 44 52 62 63 64 63 64 65 64 64
35 36 39 38 35 33 31 28 28 26 31 30 29 28 29 30 32 30 30 30 30 28 33 37 39 42 44 44 45 45 45 44 42 39 41 42 45 50 61 61 62 63 64 64
36 37 36 37 35 32 29 28 27 28 29 27 27 24 22 27 27 28 29 27 27 32 36 39 40 41 43 44 46 46 45 43 43 42 40 39 40 41 47 55 59 60 62 63
37 36 36 35 35 33 31 31 30 31 29 28 26 23 23 25 24 26 28 26 28 36 38 39 41 42 44 45 45 44 43 44 43 43 43 42 41 41 43 44 43 45 52 58
38 41 40 39 41 38 35 32 31 31 28 23 27 25 24 23 24 26 26 26 31 36 39 41 42 44 45 45 44 44 44 44 45 44 44 43 43 44 44 43 44 45 46 51
37 37 39 40 37 38 35 29 26 24 21 21 26 25 23 26 25 26 26 32 35 36 39 42 43 43 43 43 43 44 44 45 45 45 45 46 47 46 46 46 47 49 49 50
28 29 36 38 36 35 34 32 23 18 20 20 23 23 22 26 25 26 29 32 34 35 39 42 43 42 42 43 43 43 44 44 45 45 45 45 47 48 48 48 50 50 50 51
31 31 37 38 40 39 37 32 30 23 22 17 21 23 22 25 26 29 30 32 34 35 40 42 41 40 39 40 42 43 43 43 43 43 44 45 45 47 48 48 48 49 48 48
33 30 37 38 39 39 38 36 27 25 20 15 18 20 19 23 26 28 30 32 34 36 41 41 39 38 40 41 42 42 41 41 40 41 42 42 43 43 43 42 43 44 45 44
35 30 34 38 36 34 36 35 33 30 25 19 18 17 20 21 26 28 30 31 33 37 41 39 38 40 40 40 40 41 40 39 39 41 41 40 41 41 40 40 40 40 40 39
34 31 29 32 36 38 37 35 31 29 26 22 20 18 21 21 26 27 27 27 35 38 40 38 39 40 39 39 39 39 39 39 39 40 39 39 39 39 39 38 38 38 38 38
32 28 24 28 32 37 37 37 35 34 29 22 19 19 22 22 24 25 26 34 37 40 38 37 39 39 39 39 38 39 38 38 39 39 38 37 37 37 37 37 38 38 37 37
34 29 24 21 24 30 29 36 36 34 24 25 25 22 21 23 23 26 30 34 39 39 37 37 38 39 39 38 38 39 38 38 39 38 37 37 37 37 37 38 38 38 38 37
29 24 22 27 30 29 29 30 34 34 32 26 26 23 21 23 25 27 28 35 39 38 37 37 37 38 37 37 37 38 38 38 39 38 37 37 37 37 37 37 38 38 38 38
31 23 25 21 27 28 27 28 32 34 35 34 29 27 29 26 25 27 31 37 39 38 37 36 36 37 37 36 36 37 38 38 38 37 37 37 36 37 36 36 36 36 36 37
30 27 21 17 27 25 23 26 27 29 31 33 28 29 27 27 25 28 34 38 38 38 36 35 36 36 36 36 36 36 37 38 37 36 36 36 36 36 36 36 36 36 35 36
30 27 23 17 22 12 24 28 29 27 27 30 30 30 30 29 31 34 38 38 38 37 36 35 35 35 36 36 37 37 37 37 36 36 35 35 36 35 36 36 35 35 35 34
31 28 27 18 17 20 22 29 29 28 27 28 29 30 30 30 36 35 38 39 38 36 35 35 35 35 35 36 37 37 37 37 36 35 35 34 35 36 35 34 34 34 33 33
31 30 25 28 21 17 22 32 31 32 27 33 30 30 29 35 32 33 37 37 36 35 35 35 35 35 35 36 37 36 36 36 35 35 35 34 36 36 34 34 33 33 33 29
29 30 25 26 25 25 25 28 34 26 26 35 33 31 31 35 33 37 37 36 36 36 35 35 35 35 35 36 37 36 35 34 35 35 34 34 35 34 34 34 33 30 29 27
27 26 27 28 26 19 29 35 31 32 37 37 36 36 36 38 38 38 37 36 36 35 35 35 35 35 36 37 37 36 34 35 36 35 35 33 33 33 33 31 29 26 24 23
25 25 23 26 25 27 31 33 37 39 38 37 37 38 38 38 38 38 39 37 36 36 36 35 35 35 36 37 36 34 35 35 35 34 34 34 34 32 31 29 28 27 25 19
28 29 27 27 28 29 30 32 38 37 38 39 39 39 40 40 39 39 40 39 37 36 36 36 35 35 35 36 36 35 36 35 33 33 31 31 30 30 28 22 17 15 13 13
28 30 28 28 30 31 31 32 36 36 38 38 40 40 40 42 42 42 42 42 41 39 37 37 36 35 35 36 36 35 35 35 33 31 29 25 24 22 15 17 13 13 15 12
32 30 28 28 30 30 30 34 35 36 37 37 37 36 36 37 37 38 38 39 39 38 38 37 37 36 36 36 36 35 35 35 33 30 20 17 16 15 19 23 23 23 25 23
Lifted_Index
1 1 2 1 1 2 2 1 1 1 1 1 1 2 2 3 3 3 3 3 3 4 4 5 6 6 6 6 6 5 4 3 1 -0 -1 -2 -2 -2 -1 -1 -1 -2 -2 -2
1 1 1 1 1 1 1 1 1 1 1 1 1 2 2 3 3 4 4 3 3 4 5 5 6 6 6 6 6 6 5 5 4 3 2 1 0 -0 -1 -1 -1 -2 -2 -2
1 1 1 1 1 1 2 1 1 1 1 1 2 2 2 3 3 4 4 3 4 4 5 5 6 6 6 6 6 6 6 6 6 6 6 5 5 4 2 1 0 -0 -1 -2
1 1 1 1 1 1 2 2 2 2 2 2 2 2 2 3 3 4 4 4 4 5 5 5 6 6 6 6 6 7 7 7 7 8 8 8 8 7 6 5 4 3 1 0
1 1 1 1 1 2 2 2 2 2 2 2 2 2 2 3 4 4 4 4 4 5 5 5 5 6 6 6 7 7 8 8 9 9 9 9 9 9 9 8 8 7 6 5
1 1 1 1 1 2 2 2 2 2 2 2 2 2 3 3 4 4 4 4 4 4 4 5 5 5 6 6 7 8 8 9 9 10 10 10 10 10 9 9 9 9 8 8
2 2 2 2 2 2 2 2 2 1 1 1 2 2 3 4 4 4 4 5 4 4 4 5 5 5 6 7 7 8 8 9 9 10 10 10 10 9 9 9 9 8 8 8
2 2 2 2 2 2 2 2 2 1 1 1 2 2 3 4 4 4 4 4 4 5 5 5 5 5 6 7 7 8 8 8 9 9 9 9 9 9 9 9 8 8 8 8
2 2 3 2 2 2 2 2 1 1 1 1 2 3 3 4 4 3 3 3 4 5 5 4 5 5 6 7 7 8 8 8 9 9 9 9 9 9 9 9 8 8 8 8
3 3 3 2 2 2 2 1 1 1 1 1 2 2 3 3 3 3 3 3 4 4 4 4 4 5 6 6 7 7 8 8 9 9 9 10 10 10 10 9 9 9 9 9
3 3 2 2 2 2 2 1 1 1 1 1 1 2 2 2 3 3 3 3 4 4 4 4 4 5 5 6 7 7 8 8 9 9 10 10 10 10 10 10 10 10 10 10
3 2 2 2 2 2 2 1 1 1 1 1 1 1 2 2 2 3 3 3 3 3 4 4 4 4 5 6 7 7 8 9 9 10 10 10 10 10 10 10 10 10 10 10
3 2 2 2 2 2 2 1 1 1 1 1 1 1 1 1 2 2 3 3 3 3 3 3 4 4 5 6 7 7 8 9 9 10 10 11 11 11 10 10 10 10 10 10
3 3 2 2 2 2 2 2 2 1 1 2 2 1 1 1 2 2 3 3 2 3 3 3 4 4 5 6 7 7 8 9 10 10 10 11 11 11 11 10 10 10 10 10
3 3 3 3 3 3 2 2 2 2 2 2 2 2 2 1 2 3 3 3 3 3 3 3 4 4 5 6 7 8 8 9 10 10 10 11 11 11 11 10 10 10 10 10
3 4 3 3 3 3 3 3 3 3 2 2 2 2 2 2 3 3 3 3 2 3 3 3 3 4 5 6 7 7 8 10 11 11 11 12 12 11 11 10 10 10 9 10
4 4 4 3 3 3 2 3 3 3 3 3 3 3 2 3 3 3 3 2 2 2 3 3 3 4 5 6 7 7 8 10 11 11 12 12 12 12 11 10 10 10 10 10
4 4 4 3 3 2 3 3 3 3 4 4 3 3 3 3 3 3 3 2 2 3 3 3 3 4 5 6 7 7 8 9 10 10 11 12 12 11 11 10 10 10 10 10
4 4 4 3 2 2 3 3 3 3 3 3 3 3 3 4 4 3 3 3 3 3 3 3 3 4 5 6 7 7 8 8 9 9 10 11 11 11 10 10 10 11 11 12
4 4 4 3 2 2 3 3 3 3 2 2 2 3 4 4 4 3 3 3 3 3 3 3 3 4 5 6 7 7 7 8 8 9 10 11 11 11 10 11 11 12 13 14
4 4 4 3 2 2 3 3 3 2 2 2 2 2 3 4 4 3 3 3 3 3 3 3 3 4 5 6 7 7 7 8 9 10 10 11 11 11 11 12 13 14 15 16
3 3 3 3 3 3 3 3 3 2 2 2 2 2 3 4 4 3 3 3 3 3 4 3 3 4 5 6 7 7 8 9 9 10 11 11 11 12 13 14 15 16 16 16
3 3 3 3 3 3 3 3 3 2 2 2 2 3 3 3 3 3 2 2 3 3 4 4 3 3 4 6 7 8 9 10 10 11 12 12 13 14 15 15 16 16 16 16
3 3 3 3 4 4 3 3 3 2 2 2 2 2 3 3 3 3 2 3 3 3 3 3 3 3 4 5 7 8 9 10 11 12 13 14 15 15 16 16 16 16 16 16
3 3 3 3 3 3 3 3 3 3 2 2 2 2 2 3 3 3 3 3 3 3 3 3 3 3 3 5 6 8 9 10 12 13 14 14 15 15 16 15 16 16 16 17
3 3 3 3 3 3 3 3 3 3 3 3 3 3 3 3 3 3 4 4 4 4 4 3 3 3 3 4 6 7 9 10 11 12 13 14 15 15 15 15 15 16 17 17